Juneau, WI

1:55 AM CST on December 14, 2019 (GMT -0600)
Dodge County

Weather History for KUNU - October, 2019

Change the Weather History Date:

Thursday, October 17, 2019

  Actual Average Record
Temperature  
Mean Temperature 42 °F -  
Max Temperature 48 °F 56 °F 75 °F (2016)
Min Temperature 37 °F 39 °F 22 °F (1992)
Degree Days  
Heating Degree Days 22    
Moisture  
Dew Point 37 °F    
Average Humidity 81    
Maximum Humidity 99    
Minimum Humidity 63    
Precipitation  
Precipitation 0.00 in - - ()
Sea Level Pressure  
Sea Level Pressure 30.03 in    
Wind  
Wind Speed 0 mph ()    
Max Wind Speed 5 mph    
Max Gust Speed -    
Visibility 10.0 miles    
Events      
Averages and records for this station are not official NWS values.
T = Trace of Precipitation, MM = Missing Value Source: Averaged Metar Reports

Daily Weather History Graph

Daily Weather History Graph

Search for Another Location

Airport or City:

Astronomy

Oct. 17, 2019 Rise Set
Actual Time 7:10 AM CDT 6:08 PM CDT
Civil Twilight 6:42 AM CDT 6:37 PM CDT
Nautical Twilight 6:08 AM CDT 7:10 PM CDT
Astronomical Twilight 5:35 AM CDT 7:43 PM CDT
Moon 8:34 PM CDT (10/17) 10:47 AM CDT (10/17)
Length of Visible Light 11h 55m
Length of Day
10h 57m
Waning Gibbous, 86% of the Moon is Illuminated
Oct 17
Waning Gibbous
Oct 21
Last Quarter
Oct 27
New
Nov 4
First Quarter
Nov 12
Full

Hourly Weather History & Observations

Time (CDT) Temp. Windchill Dew Point Humidity Pressure Visibility Wind Dir Wind Speed Gust Speed Precip Events Conditions
12:15 AM 39.0 °F - 34.3 °F 83% 30.02 in 10.0 mi Calm Calm - N/A   Clear
12:35 AM 38.3 °F - 34.7 °F 87% 30.02 in 10.0 mi Calm Calm - N/A   Scattered Clouds
12:55 AM 38.3 °F - 34.7 °F 87% 30.02 in 10.0 mi Calm Calm - N/A   Scattered Clouds
1:15 AM 38.3 °F - 34.7 °F 87% 30.03 in 10.0 mi Calm Calm - N/A   Scattered Clouds
1:35 AM 38.5 °F - 34.7 °F 86% 30.01 in 10.0 mi Calm Calm - N/A   Scattered Clouds
2:15 AM 38.5 °F - 35.6 °F 89% 30.01 in 10.0 mi Calm Calm - N/A   Clear
2:35 AM 39.0 °F - 35.6 °F 88% 30.01 in 10.0 mi Calm Calm - N/A   Clear
2:55 AM 39.2 °F - 35.8 °F 88% 30.02 in 10.0 mi Calm Calm - N/A   Scattered Clouds
3:15 AM 39.2 °F - 36.0 °F 88% 30.01 in 10.0 mi Calm Calm - N/A   Mostly Cloudy
3:55 AM 39.4 °F - 36.5 °F 89% 30.01 in 10.0 mi Calm Calm - N/A   Overcast
4:15 AM 39.2 °F - 36.5 °F 90% 30.01 in 10.0 mi Calm Calm - N/A   Overcast
4:35 AM 39.2 °F - 36.7 °F 91% 30.01 in 10.0 mi Calm Calm - N/A   Overcast
4:55 AM 37.9 °F - 36.5 °F 95% 30.01 in 10.0 mi Calm Calm - N/A   Overcast
5:35 AM 37.8 °F - 36.5 °F 95% 30.01 in 10.0 mi Calm Calm - N/A   Scattered Clouds
6:35 AM 39.0 °F - 37.4 °F 94% 30.01 in 10.0 mi Calm Calm - N/A   Overcast
6:55 AM 39.6 °F - 37.4 °F 92% 30.01 in 10.0 mi Calm Calm - N/A   Overcast
7:15 AM 39.6 °F - 37.4 °F 92% 30.02 in 10.0 mi Calm Calm - N/A   Overcast
7:35 AM 39.6 °F - 37.8 °F 93% 30.03 in 10.0 mi Calm Calm - N/A   Overcast
7:55 AM 40.1 °F - 38.1 °F 93% 30.04 in 10.0 mi Calm Calm - N/A   Overcast
8:15 AM 40.6 °F - 38.7 °F 93% 30.04 in 10.0 mi Calm Calm - N/A   Overcast
8:35 AM 41.4 °F - 39.2 °F 92% 30.04 in 10.0 mi Calm Calm - N/A   Overcast
8:55 AM 41.9 °F - 39.4 °F 91% 30.05 in 10.0 mi Calm Calm - N/A   Overcast
9:15 AM 42.8 °F - 39.9 °F 90% 30.05 in 10.0 mi Calm Calm - N/A   Overcast
9:35 AM 43.0 °F - 39.6 °F 88% 30.06 in 10.0 mi Calm Calm - N/A   Overcast
9:55 AM 43.7 °F - 39.6 °F 85% 30.05 in 10.0 mi Calm Calm - N/A   Overcast
10:35 AM 45.0 °F - 39.2 °F 80% 30.06 in 10.0 mi Calm Calm - N/A   Overcast
10:55 AM 45.1 °F 42.8 °F 37.9 °F 76% 30.06 in 10.0 mi NW 4.6 mph - N/A   Overcast
11:15 AM 45.5 °F - 38.1 °F 75% 30.06 in 10.0 mi Calm Calm - N/A   Overcast
11:35 AM 45.9 °F 44.6 °F 38.1 °F 74% 30.06 in 10.0 mi NNW 3.5 mph - N/A   Overcast
11:55 AM 46.2 °F - 37.9 °F 73% 30.06 in 10.0 mi Calm Calm - N/A   Overcast
12:15 PM 46.4 °F - 38.1 °F 73% 30.05 in 10.0 mi Calm Calm - N/A   Overcast
12:35 PM 46.8 °F - 37.9 °F 71% 30.05 in 10.0 mi Calm Calm - N/A   Overcast
12:55 PM 46.4 °F - 37.6 °F 71% 30.04 in 10.0 mi Calm Calm - N/A   Overcast
1:35 PM 47.3 °F - 37.8 °F 69% 30.03 in 10.0 mi Calm Calm - N/A   Overcast
1:55 PM 47.5 °F - 37.8 °F 69% 30.03 in 10.0 mi Calm Calm - N/A   Overcast
2:15 PM 47.7 °F - 37.6 °F 68% 30.03 in 10.0 mi Calm Calm - N/A   Overcast
2:35 PM 47.8 °F - 37.2 °F 67% 30.02 in 10.0 mi Calm Calm - N/A   Overcast
2:55 PM 48.2 °F - 37.6 °F 67% 30.02 in 10.0 mi Calm Calm - N/A   Overcast
3:15 PM 48.6 °F - 37.2 °F 65% 30.02 in 10.0 mi Calm Calm - N/A   Overcast
3:35 PM 48.6 °F - 37.0 °F 64% 30.02 in 10.0 mi Calm Calm - N/A   Overcast
3:55 PM 48.7 °F - 36.9 °F 64% 30.02 in 10.0 mi Calm Calm - N/A   Overcast
4:15 PM 48.4 °F - 36.9 °F 64% 30.02 in 10.0 mi Calm Calm - N/A   Overcast
4:35 PM 48.4 °F - 36.7 °F 64% 30.02 in 10.0 mi Calm Calm - N/A   Overcast
4:55 PM 48.2 °F - 37.2 °F 66% 30.03 in 10.0 mi Calm Calm - N/A   Overcast
5:15 PM 48.2 °F - 37.0 °F 65% 30.02 in 10.0 mi Calm Calm - N/A   Overcast
5:35 PM 48.2 °F - 37.2 °F 66% 30.02 in 10.0 mi Calm Calm - N/A   Overcast
6:15 PM 46.9 °F - 38.3 °F 72% 30.01 in 10.0 mi Calm Calm - N/A   Overcast
6:35 PM 47.5 °F - 35.6 °F 63% 30.01 in 10.0 mi Calm Calm - N/A   Overcast
6:55 PM 45.1 °F - 36.7 °F 72% 30.01 in 10.0 mi Calm Calm - N/A   Scattered Clouds
7:15 PM 43.9 °F - 36.7 °F 76% 30.02 in 10.0 mi Calm Calm - N/A   Mostly Cloudy
7:35 PM 42.8 °F - 37.2 °F 81% 30.03 in 10.0 mi Calm Calm - N/A   Mostly Cloudy
7:55 PM 41.4 °F - 37.8 °F 87% 30.03 in 10.0 mi Calm Calm - N/A   Mostly Cloudy
8:15 PM 42.8 °F - 36.5 °F 78% 30.03 in 10.0 mi Calm Calm - N/A   Scattered Clouds
9:15 PM 38.3 °F - 36.5 °F 93% 30.04 in 10.0 mi Calm Calm - N/A   Clear
9:35 PM 39.2 °F - 36.5 °F 90% 30.04 in 10.0 mi Calm Calm - N/A   Clear
9:55 PM 38.8 °F - 36.5 °F 91% 30.04 in 10.0 mi Calm Calm - N/A   Clear
10:15 PM 39.2 °F - 37.4 °F 93% 30.04 in 10.0 mi Calm Calm - N/A   Clear
10:55 PM 38.7 °F - 37.6 °F 96% 30.04 in 10.0 mi Calm Calm - N/A   Clear
11:15 PM 38.3 °F - 37.4 °F 97% 30.04 in 10.0 mi Calm Calm - N/A   Clear
11:35 PM 37.6 °F - 37.4 °F 99% 30.04 in 10.0 mi Calm Calm - N/A   Clear